Вернуться в каталог

OPS 4682 DEB

АктивенPO
NORAD 38439·DEBRIS·🇺🇸 United States

Запущен Apr 3, 1965 с Vandenberg Space Force Base

Loading…

Ближайшие Пролёты (ближайшие 24 часа)

TLE

СвежийSource: Space-Track

Эпоха: Sep 13, 2026, 20:05 UTC

1 38439U 65027EU  26256.83708661  .00000682  00000-0  22343-2 0  9999
2 38439  90.3091  38.4135 0037696 158.3821 201.8903 12.99998255676308

Отслеживайте OPS 4682 DEB в реальном времени с AllMySat

Download on the App Store